User: anonymous   Login
Location: Maiden
(35.5760°N, 81.2120°W)
Time: 06:48:49
(UTC-05:00)
Language:

Cosmos 2151 - Orbit

View from above orbital plane
View from above orbital plane
View from above satellite
View from above satellite

Ground track
Ground track

The orbit data is extracted from the following two-line orbital elements,

1 21422U 91042A   16039.89250941  .00000829  00000-0  80077-4 0  9999
2 21422  82.5023 356.7195 0015310 139.6114 220.6246 14.91519340334812
Epoch (UTC): 08 February 2016 21:25:12
Eccentricity: 0.0015310
inclination: 82.5023°
perigee height: 582 km
apogee height: 604 km
right ascension of ascending node: 356.7195°
argument of perigee: 139.6114°
revolutions per day: 14.91519340
mean anomaly at epoch: 220.6246°
orbit number at epoch: 33481

The dashed part of the orbit path shows where the satellite is in the earth's shadow,  

DLR